Location: Trebic
(49.2170°N, 15.8830°E)
Time: 23:37:43
(UTC+02:00)

Courier 1B Rocket - Pass Details

Date: 01 September 2019
Orbit: 920 x 1202 km, 28.2° (Epoch: 22 October)

Event Time Altitude Azimuth Distance (km) Brightness Sun altitude
Rises 01:51:57 0° 225° (SW) 3,663 - -31.1°
Reaches altitude 10° 01:56:42 10° 195° (SSW) 2,783 - -30.8°
Maximum altitude 01:58:52 12° 176° (S) 2,695 - -30.7°
Drops below altitude 10° 02:01:04 10° 157° (SSE) 2,850 - -30.6°
Sets 02:06:07 0° 127° (SE) 3,885 - -30.4°
